Regional Weather Roundup
Issued by NWS

Home | Current Version | Previous Version | Graphics & Text | Print | Product List | Glossary On
Versions: 1 2 3 4 5 6 7 8 9 10 11 12 13 14 15 16 17 18 19 20 21 22 23 24 25 26 27 28 29 30 31 32 33 34 35 36 37 38 39 40 41 42 43 44 45 46 47 48
000
ASUS45 KBOU 181110
RWRCO

WEATHER ROUNDUP FOR COLORADO
NATIONAL WEATHER SERVICE DENVER/BOULDER CO
400 AM MST SUN FEB 18 2018

NOTE: "FAIR" INDICATES FEW OR NO CLOUDS BELOW 12000 FEET WITH NO
SIGNIFICANT WEATHER AND/OR OBSTRUCTIONS TO VISIBILITY.

COZ001>005-013-030-031-181200-
...NORTHWEST COLORADO...

CITY           SKY/WX    TMP DP  RH WIND       PRES   REMARKS
CRAIG          FAIR      37  16  42 SW12      29.72F
HAYDEN         FAIR      31  15  52 E7        29.75F WCI  24
MEEKER         FAIR      40  15  36 S21G32    29.74F
RANGELY        FAIR      25  17  73 E7        29.74F WCI  17
RABBIT EARS PA FAIR      23  12  63 SW10G20   29.80R WCI  12
STEAMBOAT SPGS FAIR      18  12  77 CALM      29.76F
WALDEN         FAIR      30  10  43 SW22      29.71F WCI  17
$$

COZ006>008-011-181200-
...WEST CENTRAL VALLEYS...

CITY           SKY/WX    TMP DP  RH WIND       PRES   REMARKS
GRAND JUNCTION FAIR      29  22  75 E3        29.85F
MONTROSE       FAIR      30  16  56 S10       29.93F WCI  21
EAGLE          FAIR      22  13  68 E14       29.83F WCI   9
RIFLE          FAIR      23  18  81 E3        29.86F
DELTA          FAIR      27  14  58 CALM      29.92F
NUCLA          FAIR      34  18  51 CALM      29.95F
$$

COZ017>023-064>068-181200-
...SOUTHWEST COLORADO...

CITY           SKY/WX    TMP DP  RH WIND       PRES   REMARKS
DURANGO        FAIR      23  17  78 N3        30.03F
CORTEZ         FAIR      21  15  78 E5        29.99F WCI  15
PAGOSA SPRINGS FAIR      19  14  83 W3        30.06F
TELLURIDE      FAIR      34   5  30 SE10      30.00F WCI  26
WOLF CREEK PAS FAIR      18   9  68 S25G36    30.07S WCI  -1
$$

COZ009-010-012-014-032>034-037-058>063-181200-
...CENTRAL COLORADO...

CITY           SKY/WX    TMP DP  RH WIND       PRES   REMARKS
ASPEN          FAIR      21  11  65 S12       29.85F WCI   9
BUENA VISTA    FAIR      29   6  38 SE5       29.88F WCI  24
COPPER MTN     FAIR      28   3  34 S16G31    29.89S WCI  17
BERTHOUD PASS  FAIR      21  10  63 W53G68    29.75F WCI  -1
COTTONWOOD PAS FAIR      36   0  21 N8        29.88F
GUNNISON       FAIR      13   9  84 CALM      29.98F
GRANBY         FAIR      31  11  42 SW20G26   29.78F WCI  19
KREMMLING      FAIR      37  12  35 W21G29    29.78F
LEADVILLE      FAIR      22   2  42 VRB3      29.85F
MONARCH PASS   FAIR      19   0  42 SW30      30.05F WCI   0
SALIDA         FAIR      38   7  28 S14G21    29.97F
SUNLIGHT       FAIR      19  10  68 SW22G36     N/A  WCI   3
WILKERSON PASS FAIR      21   1  42 SW22G35   29.84F WCI   5
$$

COZ069>075-181200-
...SAN LUIS VALLEY/SANGRE DE CRISTO MOUNTAINS...

CITY           SKY/WX    TMP DP  RH WIND       PRES   REMARKS
ALAMOSA        FAIR      31  14  49 SE13      29.96F WCI  21
DEL NORTE      FAIR      34  13  42 W14G22    29.97F WCI  24
LA VETA PASS   FAIR      28  10  47 S20G47    30.00R WCI  15
SAGUACHE       FAIR      12   1  62 NW5       29.99F WCI   4
$$

COZ035-036-038>040-181200-
...NORTHERN COLORADO FRONT RANGE...

CITY           SKY/WX    TMP DP  RH WIND       PRES   REMARKS
DENVER INTL AP FAIR      35  13  40 S16       29.60F WCI  25
AURORA         PTCLDY    45   8  22 S12       29.61F
FRONT RANGE AP FAIR      38  13  35 S8        29.63S
ERIE MUNI ARPT FAIR      31  13  47 SW5       29.63F WCI  26
BOULDER MUN AP FAIR      43  10  26 S15       29.56F
CENTENNIAL     FAIR      49   7  18 VRB6      29.63F
BROOMFIELD     FAIR      41  10  28 S5        29.60F
FORT COLLINS   FAIR      40  13  33 S5        29.58F
LONGMONT       FAIR      40  13  32 SE3       29.60F
$$

COZ041-046-047-076>085-087-088-181200-
...PIKES PEAK/PALMER DIVIDE AND SOUTHERN FOOTHILLS...

CITY           SKY/WX    TMP DP  RH WIND       PRES   REMARKS
COLO. SPRINGS  MOCLDY    38  13  35 CALM      29.71F
A. F. ACADEMY  FAIR      30   9  41 SW3       29.69F
SCHRIEVER AFB  NOT AVBL
CHEYENNE MTN   FAIR      38   9  29 NW6       29.64F
ELLICOTT         N/A    N/A N/A N/A S16       29.72F
FALCON         FAIR      31  10  41 MISG      29.74F
FORT CARSON    FAIR      39  11  31 SW9       29.69F
LIMON          FAIR      29  13  51 N6        29.69F WCI  23
MONUMENT HILL  FAIR      45   5  19 SW33G40   29.71F
CANON CITY     CLEAR     46  16  29 W15       29.74S
WALSENBURG     NOT AVBL
TRINIDAD       FAIR      45  12  26 W14       29.79F
$$

COZ042>045-048>051-090-091-181200-
...NORTHEAST COLORADO...

CITY           SKY/WX    TMP DP  RH WIND       PRES   REMARKS
GREELEY ARPT   FAIR      29  17  61 SE7       29.58F WCI  22
AKRON          FAIR      43  16  33 SW17      29.60F
BURLINGTON     FAIR      37  20  50 S10       29.67F
WRAY           FAIR      32  19  59 SW7       29.63F WCI  26
YUMA           NOT AVBL
STERLING       FAIR      30  21  69 SW10      29.59F WCI  21
HOLYOKE        FAIR      30  21  69 CALM      29.62F
FORT MORGAN    FAIR      35  11  37 SW5G17    29.59F WCI  31
$$

COZ086-089-092>099-181200-
...SOUTHEAST COLORADO...

CITY           SKY/WX    TMP DP  RH WIND       PRES   REMARKS
PUEBLO         FAIR      27  21  78 SW9       29.72F WCI  18
LA JUNTA       FAIR      41  18  39 SW7       29.73F
LAMAR          FAIR      37  21  52 SW8       29.71F
SPRINGFIELD      N/A     40  28  62 SW22G31   29.77F
$$




USA.gov is the U.S. government's official web portal to all federal, state and local government web resources and services.